owner,sensor,date,latitude,longitude,vertical_datum,sea_water_temperature,qcFlag 
NERRS,ioos:station:NOAA.NERRS:gndbcwq:1,2017-05-01T13:45:00Z,30.3836,-88.4364,0.0,23.3,2 
NERRS,ioos:station:NOAA.NERRS:gndbcwq:1,2017-05-01T14:45:00Z,30.3836,-88.4364,0.0,23.7,2 
NERRS,ioos:station:NOAA.NERRS:gndbcwq:1,2017-05-01T15:45:00Z,30.3836,-88.4364,0.0,24.1,2 
NERRS,ioos:station:NOAA.NERRS:gndbcwq:1,2017-05-01T16:45:00Z,30.3836,-88.4364,0.0,24.6,2 
NERRS,ioos:station:NOAA.NERRS:gndbcwq:1,2017-05-01T17:45:00Z,30.3836,-88.4364,0.0,24.4,2 
NERRS,ioos:station:NOAA.NERRS:gndbcwq:1,2017-05-01T18:45:00Z,30.3836,-88.4364,0.0,25.5,2 
NERRS,ioos:station:NOAA.NERRS:gndbcwq:1,2017-05-01T19:45:00Z,30.3836,-88.4364,0.0,26.3,2 
NERRS,ioos:station:NOAA.NERRS:gndbcwq:1,2017-05-01T20:45:00Z,30.3836,-88.4364,0.0,26.0,2 
NERRS,ioos:station:NOAA.NERRS:gndbcwq:1,2017-05-02T11:45:00Z,30.3836,-88.4364,0.0,24.4,2 
NERRS,ioos:station:NOAA.NERRS:gndbcwq:1,2017-05-02T12:45:00Z,30.3836,-88.4364,0.0,23.7,2 
NERRS,ioos:station:NOAA.NERRS:gndbcwq:1,2017-05-02T13:45:00Z,30.3836,-88.4364,0.0,24.0,2 
NERRS,ioos:station:NOAA.NERRS:gndbcwq:1,2017-05-02T14:45:00Z,30.3836,-88.4364,0.0,24.6,2 
NERRS,ioos:station:NOAA.NERRS:gndbcwq:1,2017-05-02T15:45:00Z,30.3836,-88.4364,0.0,25.1,2 
NERRS,ioos:station:NOAA.NERRS:gndbcwq:1,2017-05-02T16:45:00Z,30.3836,-88.4364,0.0,25.6,2 
NERRS,ioos:station:NOAA.NERRS:gndbcwq:1,2017-05-02T17:45:00Z,30.3836,-88.4364,0.0,26.0,2 
NERRS,ioos:station:NOAA.NERRS:gndbcwq:1,2017-05-02T18:45:00Z,30.3836,-88.4364,0.0,26.2,2 
NERRS,ioos:station:NOAA.NERRS:gndbcwq:1,2017-05-02T19:45:00Z,30.3836,-88.4364,0.0,26.7,2 
NERRS,ioos:station:NOAA.NERRS:gndbcwq:1,2017-05-02T20:15:00Z,30.3836,-88.4364,0.0,26.7,2 
NERRS,ioos:station:NOAA.NERRS:gndbcwq:1,2017-05-03T11:45:00Z,30.3836,-88.4364,0.0,24.8,2 
NERRS,ioos:station:NOAA.NERRS:gndbcwq:1,2017-05-03T12:45:00Z,30.3836,-88.4364,0.0,24.7,2 
NERRS,ioos:station:NOAA.NERRS:gndbcwq:1,2017-05-03T13:45:00Z,30.3836,-88.4364,0.0,24.8,2 
NERRS,ioos:station:NOAA.NERRS:gndbcwq:1,2017-05-03T14:45:00Z,30.3836,-88.4364,0.0,25.4,2 
NERRS,ioos:station:NOAA.NERRS:gndbcwq:1,2017-05-03T15:45:00Z,30.3836,-88.4364,0.0,25.7,2 
NERRS,ioos:station:NOAA.NERRS:gndbcwq:1,2017-05-03T16:45:00Z,30.3836,-88.4364,0.0,25.8,2 
NERRS,ioos:station:NOAA.NERRS:gndbcwq:1,2017-05-03T17:45:00Z,30.3836,-88.4364,0.0,25.7,2 
NERRS,ioos:station:NOAA.NERRS:gndbcwq:1,2017-05-03T18:30:00Z,30.3836,-88.4364,0.0,25.7,2 
NERRS,ioos:station:NOAA.NERRS:gndbcwq:1,2017-05-04T13:45:00Z,30.3836,-88.4364,0.0,21.4,2 
NERRS,ioos:station:NOAA.NERRS:gndbcwq:1,2017-05-04T14:45:00Z,30.3836,-88.4364,0.0,21.5,2 
NERRS,ioos:station:NOAA.NERRS:gndbcwq:1,2017-05-04T15:45:00Z,30.3836,-88.4364,0.0,22.0,2 
NERRS,ioos:station:NOAA.NERRS:gndbcwq:1,2017-05-04T16:45:00Z,30.3836,-88.4364,0.0,22.1,2 
NERRS,ioos:station:NOAA.NERRS:gndbcwq:1,2017-05-04T17:45:00Z,30.3836,-88.4364,0.0,22.5,2 
NERRS,ioos:station:NOAA.NERRS:gndbcwq:1,2017-05-04T18:45:00Z,30.3836,-88.4364,0.0,22.9,2 
NERRS,ioos:station:NOAA.NERRS:gndbcwq:1,2017-05-04T19:45:00Z,30.3836,-88.4364,0.0,23.0,2 
NERRS,ioos:station:NOAA.NERRS:gndbcwq:1,2017-05-04T20:45:00Z,30.3836,-88.4364,0.0,23.2,2 
NERRS,ioos:station:NOAA.NERRS:gndbcwq:1,2017-05-04T21:45:00Z,30.3836,-88.4364,0.0,22.7,2 
NERRS,ioos:station:NOAA.NERRS:gndbcwq:1,2017-05-04T22:45:00Z,30.3836,-88.4364,0.0,22.2,2 
NERRS,ioos:station:NOAA.NERRS:gndbcwq:1,2017-05-05T11:45:00Z,30.3836,-88.4364,0.0,17.6,2 
NERRS,ioos:station:NOAA.NERRS:gndbcwq:1,2017-05-05T12:45:00Z,30.3836,-88.4364,0.0,18.0,2 
NERRS,ioos:station:NOAA.NERRS:gndbcwq:1,2017-05-05T14:45:00Z,30.3836,-88.4364,0.0,18.5,2 
NERRS,ioos:station:NOAA.NERRS:gndbcwq:1,2017-05-05T15:45:00Z,30.3836,-88.4364,0.0,18.7,2 
NERRS,ioos:station:NOAA.NERRS:gndbcwq:1,2017-05-05T16:45:00Z,30.3836,-88.4364,0.0,19.3,2 
NERRS,ioos:station:NOAA.NERRS:gndbcwq:1,2017-05-05T17:45:00Z,30.3836,-88.4364,0.0,19.9,2 
NERRS,ioos:station:NOAA.NERRS:gndbcwq:1,2017-05-05T19:45:00Z,30.3836,-88.4364,0.0,21.1,2 
NERRS,ioos:station:NOAA.NERRS:gndbcwq:1,2017-05-05T20:45:00Z,30.3836,-88.4364,0.0,21.3,2 
NERRS,ioos:station:NOAA.NERRS:gndbcwq:1,2017-05-05T21:00:00Z,30.3836,-88.4364,0.0,21.4,2 
NERRS,ioos:station:NOAA.NERRS:gndbcwq:1,2017-05-06T11:45:00Z,30.3836,-88.4364,0.0,18.7,2 
NERRS,ioos:station:NOAA.NERRS:gndbcwq:1,2017-05-06T12:45:00Z,30.3836,-88.4364,0.0,19.6,2 
NERRS,ioos:station:NOAA.NERRS:gndbcwq:1,2017-05-06T13:45:00Z,30.3836,-88.4364,0.0,20.2,2 
NERRS,ioos:station:NOAA.NERRS:gndbcwq:1,2017-05-06T14:45:00Z,30.3836,-88.4364,0.0,20.5,2 
NERRS,ioos:station:NOAA.NERRS:gndbcwq:1,2017-05-06T16:45:00Z,30.3836,-88.4364,0.0,22.3,2 
NERRS,ioos:station:NOAA.NERRS:gndbcwq:1,2017-05-06T18:45:00Z,30.3836,-88.4364,0.0,23.6,2 
NERRS,ioos:station:NOAA.NERRS:gndbcwq:1,2017-05-06T19:45:00Z,30.3836,-88.4364,0.0,24.1,2 
NERRS,ioos:station:NOAA.NERRS:gndbcwq:1,2017-05-06T20:15:00Z,30.3836,-88.4364,0.0,24.4,2 
NERRS,ioos:station:NOAA.NERRS:gndbcwq:1,2017-05-07T11:45:00Z,30.3836,-88.4364,0.0,21.8,2 
NERRS,ioos:station:NOAA.NERRS:gndbcwq:1,2017-05-07T12:45:00Z,30.3836,-88.4364,0.0,20.5,2 
NERRS,ioos:station:NOAA.NERRS:gndbcwq:1,2017-05-07T14:45:00Z,30.3836,-88.4364,0.0,22.0,2 
NERRS,ioos:station:NOAA.NERRS:gndbcwq:1,2017-05-07T15:45:00Z,30.3836,-88.4364,0.0,23.3,2 
NERRS,ioos:station:NOAA.NERRS:gndbcwq:1,2017-05-07T16:45:00Z,30.3836,-88.4364,0.0,24.5,2 
NERRS,ioos:station:NOAA.NERRS:gndbcwq:1,2017-05-07T17:45:00Z,30.3836,-88.4364,0.0,25.0,2 
NERRS,ioos:station:NOAA.NERRS:gndbcwq:1,2017-05-07T19:45:00Z,30.3836,-88.4364,0.0,26.2,2 
NERRS,ioos:station:NOAA.NERRS:gndbcwq:1,2017-05-07T20:00:00Z,30.3836,-88.4364,0.0,26.4,2 
NERRS,ioos:station:NOAA.NERRS:gndbcwq:1,2017-05-08T12:45:00Z,30.3836,-88.4364,0.0,23.9,2 
NERRS,ioos:station:NOAA.NERRS:gndbcwq:1,2017-05-08T13:45:00Z,30.3836,-88.4364,0.0,23.6,2 
NERRS,ioos:station:NOAA.NERRS:gndbcwq:1,2017-05-08T14:45:00Z,30.3836,-88.4364,0.0,23.7,2 
NERRS,ioos:station:NOAA.NERRS:gndbcwq:1,2017-05-08T15:45:00Z,30.3836,-88.4364,0.0,23.9,2 
NERRS,ioos:station:NOAA.NERRS:gndbcwq:1,2017-05-08T16:45:00Z,30.3836,-88.4364,0.0,24.0,2 
NERRS,ioos:station:NOAA.NERRS:gndbcwq:1,2017-05-08T17:45:00Z,30.3836,-88.4364,0.0,24.6,2 
NERRS,ioos:station:NOAA.NERRS:gndbcwq:1,2017-05-08T19:45:00Z,30.3836,-88.4364,0.0,25.4,2 
NERRS,ioos:station:NOAA.NERRS:gndbcwq:1,2017-05-08T20:00:00Z,30.3836,-88.4364,0.0,27.6,2 
NERRS,ioos:station:NOAA.NERRS:gndbcwq:1,2017-05-09T11:45:00Z,30.3836,-88.4364,0.0,25.0,2 
NERRS,ioos:station:NOAA.NERRS:gndbcwq:1,2017-05-09T12:45:00Z,30.3836,-88.4364,0.0,25.3,2 
NERRS,ioos:station:NOAA.NERRS:gndbcwq:1,2017-05-09T13:45:00Z,30.3836,-88.4364,0.0,24.9,2 
NERRS,ioos:station:NOAA.NERRS:gndbcwq:1,2017-05-09T14:45:00Z,30.3836,-88.4364,0.0,25.4,2 
NERRS,ioos:station:NOAA.NERRS:gndbcwq:1,2017-05-09T15:45:00Z,30.3836,-88.4364,0.0,25.5,2 
NERRS,ioos:station:NOAA.NERRS:gndbcwq:1,2017-05-09T16:45:00Z,30.3836,-88.4364,0.0,25.5,2 
NERRS,ioos:station:NOAA.NERRS:gndbcwq:1,2017-05-09T17:45:00Z,30.3836,-88.4364,0.0,26.6,2 
NERRS,ioos:station:NOAA.NERRS:gndbcwq:1,2017-05-09T18:45:00Z,30.3836,-88.4364,0.0,27.9,2 
NERRS,ioos:station:NOAA.NERRS:gndbcwq:1,2017-05-09T19:45:00Z,30.3836,-88.4364,0.0,30.9,2 
NERRS,ioos:station:NOAA.NERRS:gndbcwq:1,2017-05-09T20:00:00Z,30.3836,-88.4364,0.0,31.0,2 
NERRS,ioos:station:NOAA.NERRS:gndbcwq:1,2017-05-10T11:45:00Z,30.3836,-88.4364,0.0,26.0,2 
NERRS,ioos:station:NOAA.NERRS:gndbcwq:1,2017-05-10T12:45:00Z,30.3836,-88.4364,0.0,25.6,2 
NERRS,ioos:station:NOAA.NERRS:gndbcwq:1,2017-05-10T13:45:00Z,30.3836,-88.4364,0.0,25.8,2 
NERRS,ioos:station:NOAA.NERRS:gndbcwq:1,2017-05-10T14:45:00Z,30.3836,-88.4364,0.0,25.8,2 
NERRS,ioos:station:NOAA.NERRS:gndbcwq:1,2017-05-10T15:45:00Z,30.3836,-88.4364,0.0,26.1,2 
NERRS,ioos:station:NOAA.NERRS:gndbcwq:1,2017-05-10T17:45:00Z,30.3836,-88.4364,0.0,26.7,2 
NERRS,ioos:station:NOAA.NERRS:gndbcwq:1,2017-05-10T18:45:00Z,30.3836,-88.4364,0.0,27.3,2 
NERRS,ioos:station:NOAA.NERRS:gndbcwq:1,2017-05-10T19:45:00Z,30.3836,-88.4364,0.0,28.3,2 
NERRS,ioos:station:NOAA.NERRS:gndbcwq:1,2017-05-10T20:15:00Z,30.3836,-88.4364,0.0,28.4,2 
NERRS,ioos:station:NOAA.NERRS:gndbcwq:1,2017-05-11T11:45:00Z,30.3836,-88.4364,0.0,25.3,2 
NERRS,ioos:station:NOAA.NERRS:gndbcwq:1,2017-05-11T12:45:00Z,30.3836,-88.4364,0.0,25.5,2 
NERRS,ioos:station:NOAA.NERRS:gndbcwq:1,2017-05-11T13:45:00Z,30.3836,-88.4364,0.0,25.7,2 
NERRS,ioos:station:NOAA.NERRS:gndbcwq:1,2017-05-11T14:45:00Z,30.3836,-88.4364,0.0,25.9,2 
NERRS,ioos:station:NOAA.NERRS:gndbcwq:1,2017-05-11T15:45:00Z,30.3836,-88.4364,0.0,27.4,2 
NERRS,ioos:station:NOAA.NERRS:gndbcwq:1,2017-05-11T16:45:00Z,30.3836,-88.4364,0.0,28.2,2 
NERRS,ioos:station:NOAA.NERRS:gndbcwq:1,2017-05-11T17:15:00Z,30.3836,-88.4364,0.0,28.6,2 
NERRS,ioos:station:NOAA.NERRS:gndbcwq:1,2017-05-22T15:45:00Z,30.3836,-88.4364,0.0,25.8,2 
 
DISCLAIMER: The Gulf of Mexico Coastal and Ocean Observing (GCOOS) Data Portal aggregates data from the regional data providers for the convenience of all data users. Data published on this website should not be used for navigation or certain other uses as we cannot guarantee data accuracy or availability. The data and delivery services are provided 'as is' without warranty of any kind. Data Source: Gulf of Mexico Coastal Ocean Observing System Data Portal (http://data.gcoos.org/) 
